Temperature
7 7 7 7 7 7 7 7 7 7 7 7 7 7 7 7 7 7 6 7 7 7 7 7 7 7 7 7 7 7 7 7 7 7 7 6 6 7 7 7 7 7 7
6 6 6 6 6 6 6 6 6 6 6 6 6 6 6 6 6 6 6 6 6 6 6 6 6 7 6 7 7 7 6 6 6 6 6 6 6 6 6 6 6 6 6
5 5 5 5 6 6 6 6 6 6 6 6 6 6 6 6 6 6 6 6 6 6 6 6 6 6 6 6 6 6 6 6 6 6 5 5 5 5 5 5 5 5 5
5 5 5 5 5 5 6 6 5 5 5 5 5 5 5 5 5 5 5 5 5 5 5 5 5 5 5 5 5 5 5 5 5 5 5 5 5 4 4 4 4 4 4
4 4 4 4 4 5 5 5 5 5 5 5 5 5 5 5 5 5 5 5 5 5 5 4 4 5 5 5 5 5 5 4 4 4 4 4 4 4 4 4 4 3 3
3 4 4 4 4 4 4 4 4 4 4 4 4 4 4 4 4 4 4 4 4 4 4 4 4 4 4 4 4 4 4 4 4 3 3 3 3 3 3 3 3 3 2
2 3 3 3 3 3 4 4 4 4 4 4 3 4 3 3 3 3 4 3 3 3 3 3 3 3 3 3 3 3 3 3 3 3 3 3 3 3 3 2 2 2 2
2 2 2 3 3 3 3 3 3 3 3 3 3 3 3 3 3 3 3 3 3 3 3 3 3 2 2 2 2 2 2 2 2 2 2 2 2 2 2 2 1 1 1
1 2 2 2 2 2 2 2 2 2 2 2 2 2 2 2 2 2 2 2 2 2 2 2 2 2 2 2 2 2 1 1 2 2 2 2 2 1 1 1 1 1 0
1 1 1 1 2 2 2 2 2 2 2 2 2 2 2 2 2 2 2 1 1 1 1 1 1 1 1 1 1 1 1 1 1 1 1 1 1 1 1 0 0 -0 -0
0 1 1 1 1 1 1 1 1 1 1 1 1 1 1 1 1 1 1 1 1 1 0 0 0 0 0 0 0 0 0 0 0 0 0 0 0 0 -0 -0 -0 -0 -1
-0 -0 0 0 0 0 0 0 1 1 1 1 1 0 0 0 0 0 0 0 0 -0 -0 -0 -0 -0 -0 -0 -0 -0 -0 -0 -0 -1 -1 -0 -0 -0 -1 -1 -1 -1 -1
-1 -1 -1 -1 -0 -0 -0 -0 -0 -0 -0 -0 -0 -0 -0 -0 -0 -0 -0 -0 -0 -0 -1 -1 -1 -1 -1 -1 -1 -1 -1 -1 -1 -1 -1 -1 -1 -1 -1 -1 -1 -1 -1
-1 -1 -1 -1 -1 -1 -1 -1 -1 -1 -1 -1 -1 -1 -1 -1 -1 -1 -1 -1 -1 -1 -1 -1 -1 -1 -1 -1 -1 -1 -1 -1 -2 -2 -2 -2 -2 -2 -2 -2 -2 -2 -2
-2 -2 -2 -2 -2 -2 -2 -2 -1 -1 -1 -1 -1 -1 -1 -1 -1 -1 -1 -1 -2 -2 -2 -2 -2 -2 -2 -2 -2 -2 -2 -2 -2 -2 -2 -2 -2 -2 -2 -2 -2 -2 -3
-3 -3 -3 -3 -3 -3 -2 -2 -2 -2 -2 -2 -2 -2 -2 -2 -2 -2 -2 -2 -2 -2 -2 -2 -2 -2 -2 -2 -2 -2 -3 -3 -3 -3 -3 -3 -3 -3 -3 -3 -3 -3 -3
-3 -3 -3 -3 -3 -3 -3 -3 -3 -3 -3 -2 -2 -2 -2 -2 -2 -2 -2 -2 -3 -3 -3 -3 -3 -3 -3 -3 -3 -3 -3 -3 -3 -3 -3 -3 -3 -3 -4 -4 -4 -4 -4
-4 -4 -4 -4 -4 -4 -4 -3 -3 -3 -4 -4 -3 -3 -3 -3 -3 -3 -3 -3 -3 -3 -3 -3 -3 -3 -3 -3 -3 -3 -3 -3 -4 -4 -4 -4 -4 -4 -4 -4 -4 -4 -4
-4 -4 -4 -4 -4 -4 -4 -4 -4 -4 -4 -4 -4 -4 -4 -4 -4 -4 -4 -4 -3 -3 -3 -3 -4 -4 -4 -4 -4 -4 -4 -4 -4 -4 -4 -4 -4 -4 -4 -4 -5 -5 -5
-5 -5 -5 -5 -5 -4 -4 -4 -4 -4 -4 -4 -4 -4 -4 -4 -4 -4 -4 -4 -4 -4 -4 -4 -4 -4 -4 -4 -4 -4 -5 -5 -5 -5 -5 -5 -5 -5 -5 -5 -5 -5 -5
-6 -5 -5 -5 -5 -5 -5 -5 -5 -5 -5 -5 -5 -5 -5 -5 -5 -5 -4 -4 -4 -4 -4 -4 -5 -5 -5 -5 -5 -5 -5 -5 -5 -5 -5 -5 -5 -5 -5 -5 -6 -6 -6
-6 -6 -6 -6 -6 -5 -5 -5 -5 -5 -5 -5 -5 -5 -5 -5 -5 -5 -5 -5 -5 -5 -5 -5 -5 -5 -5 -5 -5 -5 -5 -6 -6 -6 -6 -5 -5 -6 -6 -6 -6 -6 -6
-7 -7 -6 -6 -6 -6 -6 -6 -6 -6 -6 -6 -6 -6 -6 -6 -6 -6 -6 -6 -6 -6 -6 -6 -6 -6 -6 -6 -6 -6 -6 -6 -6 -6 -6 -6 -6 -6 -6 -6 -6 -6 -6
-7 -7 -7 -7 -7 -7 -6 -6 -6 -6 -6 -6 -6 -6 -6 -6 -6 -6 -6 -6 -6 -6 -6 -6 -6 -6 -6 -6 -6 -6 -6 -6 -6 -6 -6 -6 -6 -6 -6 -6 -6 -7 -7
-8 -8 -7 -7 -7 -7 -7 -7 -7 -7 -7 -7 -7 -7 -7 -7 -7 -7 -6 -6 -6 -6 -6 -6 -6 -6 -6 -6 -6 -6 -6 -6 -6 -6 -7 -7 -7 -7 -7 -7 -7 -7 -7
-8 -8 -8 -8 -7 -7 -7 -7 -7 -7 -7 -7 -7 -7 -7 -7 -7 -7 -7 -7 -7 -7 -7 -7 -7 -7 -7 -7 -7 -7 -7 -7 -7 -7 -7 -7 -7 -7 -7 -7 -7 -7 -7
Wind_Speed
5 6 6 6 7 7 7 7 7 6 7 7 6 6 6 5 5 5 5 5 4 4 3 3 3 3 2 2 1 1 1 2 3 2 1 1 1 1 1 1 1 2 2
4 5 5 6 6 7 7 7 7 7 6 6 6 6 6 6 6 6 6 5 5 5 4 4 4 3 3 2 2 2 1 1 2 3 2 1 1 2 1 1 2 2 3
3 4 5 6 6 7 7 7 7 7 6 6 6 6 6 6 5 5 5 5 5 5 5 5 4 4 3 2 2 2 1 1 1 2 2 1 1 1 1 1 2 2 3
3 4 4 5 6 6 7 7 7 7 7 7 6 6 5 5 5 5 5 5 5 4 4 3 3 4 4 3 3 2 2 2 2 2 2 2 1 1 1 1 2 2 2
3 3 3 4 5 6 6 6 6 7 7 6 6 6 5 5 5 6 5 5 5 4 3 3 3 3 3 3 2 3 2 2 2 2 2 2 1 1 2 2 2 2 3
2 3 3 3 4 5 5 6 6 6 6 6 6 6 5 4 5 6 6 5 5 5 4 3 2 3 4 3 3 2 3 3 3 3 3 3 3 3 2 2 2 3 3
2 2 3 3 3 4 5 6 6 6 6 6 6 5 5 6 7 7 6 4 4 4 4 3 3 3 3 3 3 2 1 1 3 4 4 4 4 3 3 3 3 4 4
2 2 3 3 3 3 4 5 5 5 5 5 5 5 5 5 7 7 7 4 3 3 3 4 4 4 3 3 2 2 1 2 2 3 3 3 3 3 4 4 4 4 4
2 2 3 3 4 4 4 4 5 5 5 4 4 5 5 5 7 7 6 4 3 3 3 3 4 4 4 4 3 3 2 2 1 1 2 2 3 3 3 2 3 3 4
2 2 2 3 4 4 4 4 4 4 5 4 4 4 5 5 6 7 7 4 4 3 2 3 4 4 5 5 4 4 4 3 2 1 1 2 2 2 3 3 4 4 4
1 2 2 3 3 4 4 3 4 5 5 4 4 3 4 5 6 7 7 5 5 4 3 3 3 5 5 5 4 4 4 3 2 2 2 2 2 2 2 3 3 4 4
2 3 3 3 3 3 4 3 4 5 5 4 4 3 3 4 5 6 7 6 5 5 4 4 4 5 5 5 4 4 4 3 2 2 2 3 3 3 3 3 3 4 5
3 3 3 3 2 3 4 4 4 4 4 4 4 3 3 3 4 6 7 7 6 5 4 4 4 4 5 4 4 5 5 4 3 3 4 4 3 3 3 3 3 3 4
3 3 3 3 2 2 3 3 4 4 4 4 4 4 3 3 4 4 5 5 6 4 4 4 5 5 4 4 4 4 4 4 4 4 4 3 2 2 3 3 3 3 3
3 2 2 2 2 2 2 2 2 3 4 4 4 4 4 4 4 5 5 5 5 5 4 3 4 4 4 4 3 3 3 3 4 4 4 3 3 3 3 3 3 3 4
2 2 2 2 2 2 2 2 2 2 2 2 2 3 3 4 5 6 6 7 7 7 5 4 5 5 5 5 5 4 4 4 4 4 4 4 4 4 4 3 3 4 5
1 1 2 2 2 2 2 3 2 2 2 2 2 2 3 4 5 6 7 7 7 7 5 5 5 5 5 5 5 5 5 4 4 4 4 4 4 4 4 4 4 4 5
1 1 1 1 2 2 2 2 2 2 2 1 1 2 2 3 4 5 6 6 5 5 5 5 5 5 5 5 5 5 4 4 4 4 5 5 4 4 5 5 5 5 5
2 1 1 1 1 1 2 2 2 2 2 2 1 1 1 2 3 4 4 4 5 5 5 5 5 5 5 5 5 4 5 4 4 5 5 5 5 5 5 5 5 6 6
2 2 1 0 1 1 1 2 2 2 2 2 2 2 2 2 2 2 3 3 4 4 4 5 5 4 4 4 4 4 4 5 5 5 5 5 5 5 6 6 6 6 6
1 1 1 0 0 1 1 1 2 2 2 2 2 3 3 3 3 3 3 3 3 3 3 4 4 4 4 4 4 5 5 5 5 5 5 5 5 5 6 6 6 6 6
1 1 1 0 0 1 1 1 2 2 2 3 2 2 3 3 3 3 3 3 3 3 3 3 4 4 4 5 5 5 5 5 5 5 6 5 5 6 6 6 6 6 6
2 1 1 1 1 1 1 1 2 2 2 3 3 2 2 3 3 3 3 3 3 3 3 3 4 4 4 5 6 5 6 6 6 6 6 6 6 6 6 7 8 8 7
2 2 2 2 1 2 2 2 2 2 2 3 3 3 3 3 3 3 3 3 3 3 3 4 4 5 6 5 5 6 7 8 7 7 7 7 7 6 6 7 8 8 8
3 2 2 2 2 2 2 2 2 2 3 3 3 3 3 3 3 3 3 3 3 3 4 4 5 5 6 7 7 7 9 10 9 8 7 7 7 7 7 8 7 8 8
3 3 3 3 2 2 2 2 3 3 3 3 3 3 3 3 3 3 3 3 3 4 4 5 6 6 7 7 8 9 10 10 10 10 9 7 7 7 7 7 8 8 8
Wind_Direction
191 193 194 194 192 190 187 188 186 184 184 183 183 183 184 186 189 190 190 184 179 178 176 180 190 187 175 176 166 166 190 209 218 229 218 209 256 250 240 258 277 282 282
189 190 193 190 187 187 186 185 184 184 184 183 184 186 188 188 189 188 186 184 184 184 185 187 193 178 175 182 167 164 186 212 214 221 236 229 262 241 244 293 329 314 300
189 186 189 190 186 188 187 183 183 180 180 181 181 186 188 186 186 188 186 183 184 189 190 191 193 180 179 185 177 176 176 175 215 217 232 254 265 239 257 285 293 297 301
185 183 191 193 189 190 186 182 180 178 179 181 181 181 184 186 186 181 177 177 181 187 188 191 193 186 186 184 179 183 176 170 180 193 213 237 259 286 268 270 282 286 294
182 181 190 191 186 183 181 178 177 178 179 180 178 176 176 183 185 178 177 179 182 181 184 187 185 175 177 182 181 188 183 188 194 200 217 225 227 248 255 273 278 293 297
189 183 183 178 171 169 172 171 171 175 174 175 180 173 172 179 166 169 177 180 184 187 188 183 170 160 151 151 154 171 188 199 210 219 230 230 238 245 257 262 272 288 292
183 173 172 166 158 162 164 164 165 167 168 170 174 173 173 168 155 155 159 174 181 186 185 179 178 170 166 170 160 164 187 236 247 240 233 242 248 244 242 249 255 268 277
165 166 166 157 152 149 157 162 164 162 164 168 171 173 169 164 156 157 156 166 171 181 185 184 187 187 181 171 166 178 213 243 250 247 244 258 264 259 246 253 257 270 286
178 170 168 160 156 154 157 163 164 161 161 165 169 167 169 169 159 160 159 163 167 178 191 195 199 199 181 173 180 188 212 243 272 245 271 290 292 274 247 237 243 252 274
198 177 166 162 163 165 162 158 158 158 160 159 161 169 175 180 170 168 171 174 176 179 187 202 203 205 197 194 203 206 222 239 239 248 270 288 277 249 223 239 244 248 270
174 145 140 146 153 157 154 154 151 152 153 153 156 167 175 177 176 178 181 183 184 187 196 207 209 195 204 207 220 225 225 234 238 246 252 257 266 260 257 268 264 254 256
132 128 129 129 129 134 134 138 143 146 148 154 156 163 174 178 182 182 182 186 190 194 204 210 204 191 201 211 220 218 215 219 227 238 248 252 260 267 272 277 277 275 272
126 124 120 112 118 133 140 144 145 149 154 160 166 172 181 187 184 182 186 186 191 201 206 196 198 197 202 214 212 215 216 220 220 228 243 252 259 265 273 279 286 287 288
123 123 124 124 124 129 140 152 158 164 166 170 174 179 185 193 196 193 189 185 183 191 197 192 197 204 207 212 218 221 227 227 228 234 244 254 256 257 262 268 274 282 286
116 121 132 135 140 140 141 154 168 179 184 183 190 191 191 202 210 201 195 194 195 194 190 201 211 212 212 217 221 223 228 231 235 238 241 249 252 257 267 268 269 271 270
123 130 140 145 146 146 140 109 80 142 144 167 186 197 211 216 203 205 205 201 196 192 199 206 212 216 219 220 223 228 233 235 239 240 239 243 245 251 262 268 266 263 268
137 152 153 154 157 159 162 156 141 101 114 146 166 190 208 200 203 203 199 197 198 198 210 213 217 221 224 226 229 232 236 237 237 239 241 244 246 250 254 257 256 260 266
72 98 148 165 165 165 167 167 165 166 171 177 175 184 198 201 200 198 193 194 204 210 216 216 219 222 224 227 230 234 236 236 236 240 242 242 240 244 249 253 254 260 267
56 67 87 129 148 151 152 152 156 165 178 194 202 199 198 197 197 200 201 212 212 215 216 219 222 223 227 230 232 233 234 236 239 244 244 243 242 244 249 253 258 261 265
38 41 35 86 143 140 148 159 168 182 196 208 217 229 224 205 206 213 218 220 220 222 221 222 225 227 227 230 231 232 235 239 238 242 246 245 245 245 250 254 255 258 262
16 25 23 37 131 173 189 194 199 209 218 223 231 238 234 222 221 224 227 227 227 230 231 231 231 228 230 230 231 233 236 241 243 244 246 245 245 248 252 253 256 258 263
358 348 340 324 263 232 234 230 227 230 231 238 246 244 240 231 227 232 235 238 242 244 242 242 242 238 233 231 232 235 238 242 243 245 248 246 245 248 250 253 255 259 261
343 335 330 314 279 249 256 248 241 241 245 249 246 246 248 240 237 242 248 250 248 244 243 242 243 243 242 239 238 236 238 241 244 245 248 251 250 251 252 253 255 258 258
335 325 314 302 287 264 259 261 261 257 257 253 248 248 250 249 247 248 251 255 253 251 249 247 247 248 250 252 251 248 248 250 249 246 244 246 249 251 251 252 255 257 259
329 321 311 298 283 274 269 265 261 261 261 252 246 247 249 252 254 255 253 250 254 255 260 262 257 255 254 256 257 258 257 255 253 250 247 246 247 248 250 253 254 258 259
321 315 308 298 286 279 273 269 267 263 262 259 251 251 255 257 257 256 256 254 256 258 262 264 263 263 265 265 264 264 264 262 258 255 254 250 248 249 250 252 255 255 257
Height
1461 1463 1466 1469 1471 1474 1476 1479 1481 1483 1486 1488 1490 1493 1495 1497 1499 1500 1502 1504 1506 1508 1509 1511 1513 1515 1517 1519 1520 1521 1523 1524 1524 1525 1526 1527 1527 1528 1528 1528 1528 1528 1528
1458 1461 1463 1465 1468 1470 1472 1475 1478 1480 1483 1485 1487 1489 1491 1494 1495 1497 1499 1501 1502 1504 1506 1508 1510 1512 1513 1515 1516 1518 1519 1521 1521 1521 1522 1523 1523 1524 1524 1524 1524 1524 1524
1456 1458 1460 1462 1464 1466 1469 1472 1474 1477 1479 1482 1484 1486 1488 1490 1492 1494 1496 1497 1499 1501 1503 1505 1506 1508 1509 1511 1512 1514 1515 1516 1517 1518 1519 1520 1520 1520 1520 1521 1521 1521 1520
1454 1455 1457 1458 1460 1463 1465 1468 1470 1473 1476 1478 1480 1483 1485 1487 1489 1490 1492 1494 1496 1498 1499 1501 1503 1504 1505 1507 1508 1510 1512 1513 1514 1515 1516 1517 1517 1517 1517 1517 1517 1517 1516
1451 1452 1454 1456 1457 1459 1462 1464 1467 1470 1472 1475 1477 1479 1481 1484 1485 1487 1489 1491 1493 1494 1496 1498 1500 1501 1502 1504 1505 1507 1508 1510 1511 1512 1512 1513 1513 1513 1513 1513 1513 1512 1512
1448 1449 1451 1453 1454 1456 1458 1461 1464 1466 1469 1472 1474 1476 1478 1480 1482 1484 1486 1488 1490 1491 1493 1494 1496 1497 1499 1501 1502 1504 1505 1506 1507 1508 1508 1509 1509 1510 1510 1510 1509 1508 1507
1446 1447 1448 1450 1451 1453 1455 1457 1460 1463 1466 1468 1471 1473 1475 1477 1479 1481 1483 1485 1486 1488 1490 1491 1493 1494 1496 1497 1499 1500 1502 1503 1504 1505 1505 1505 1505 1506 1506 1506 1506 1505 1504
1443 1444 1446 1447 1449 1451 1453 1455 1457 1460 1463 1465 1468 1470 1472 1474 1476 1479 1480 1482 1483 1485 1487 1489 1491 1492 1493 1494 1496 1497 1498 1499 1500 1501 1501 1501 1502 1502 1502 1502 1501 1501 1500
1441 1442 1444 1445 1447 1449 1451 1453 1455 1458 1460 1462 1465 1467 1469 1472 1474 1476 1478 1479 1481 1483 1484 1486 1488 1489 1490 1492 1493 1494 1494 1496 1497 1497 1497 1497 1498 1498 1497 1497 1497 1496 1495
1439 1440 1442 1443 1445 1447 1449 1451 1453 1455 1458 1460 1462 1465 1467 1469 1472 1474 1476 1477 1478 1480 1482 1483 1485 1486 1488 1489 1490 1491 1491 1492 1493 1493 1493 1493 1493 1493 1493 1493 1492 1492 1490
1437 1438 1440 1441 1443 1445 1447 1449 1451 1453 1455 1457 1460 1462 1464 1466 1469 1471 1473 1474 1476 1477 1478 1480 1482 1483 1485 1486 1487 1487 1488 1489 1488 1488 1489 1489 1489 1489 1488 1488 1488 1487 1486
1435 1436 1437 1439 1441 1443 1445 1447 1449 1451 1453 1455 1457 1459 1461 1463 1465 1467 1470 1471 1473 1474 1475 1477 1479 1480 1481 1482 1483 1484 1485 1485 1485 1485 1485 1484 1484 1484 1484 1484 1484 1483 1482
1433 1434 1436 1437 1439 1441 1443 1445 1447 1449 1450 1452 1454 1456 1458 1460 1462 1464 1466 1468 1470 1471 1472 1474 1475 1477 1478 1479 1479 1480 1481 1481 1481 1481 1481 1480 1480 1480 1480 1479 1479 1478 1477
1431 1432 1434 1436 1437 1439 1441 1443 1445 1446 1448 1450 1452 1453 1455 1458 1459 1461 1462 1464 1466 1467 1469 1470 1472 1473 1474 1475 1476 1476 1476 1477 1477 1477 1476 1476 1476 1475 1475 1474 1473 1473 1472
1429 1431 1432 1434 1436 1437 1439 1441 1443 1444 1446 1448 1449 1451 1452 1454 1455 1457 1459 1460 1462 1464 1465 1466 1468 1469 1470 1470 1471 1472 1472 1472 1472 1472 1472 1472 1471 1471 1470 1470 1469 1468 1467
1428 1429 1431 1432 1434 1436 1437 1439 1440 1442 1444 1446 1447 1449 1450 1451 1452 1453 1455 1457 1459 1460 1462 1462 1463 1464 1465 1466 1466 1467 1467 1467 1468 1468 1467 1467 1467 1466 1465 1465 1464 1463 1462
1427 1428 1429 1431 1432 1434 1436 1437 1438 1440 1442 1443 1444 1446 1447 1447 1449 1450 1451 1453 1455 1457 1458 1458 1459 1460 1461 1461 1462 1462 1462 1463 1463 1463 1463 1462 1462 1461 1461 1460 1459 1458 1457
1427 1427 1428 1430 1431 1432 1434 1435 1436 1437 1438 1439 1441 1442 1443 1444 1445 1446 1447 1449 1450 1452 1452 1453 1454 1455 1456 1457 1457 1457 1458 1458 1458 1458 1458 1458 1457 1456 1456 1455 1454 1453 1452
1426 1426 1427 1428 1429 1430 1432 1433 1434 1435 1436 1437 1437 1438 1439 1440 1441 1442 1443 1444 1445 1446 1447 1448 1449 1450 1451 1452 1452 1453 1453 1453 1453 1453 1453 1453 1452 1451 1450 1450 1449 1448 1447
1425 1426 1426 1427 1428 1429 1430 1431 1432 1433 1433 1434 1434 1435 1435 1436 1437 1437 1438 1439 1440 1441 1442 1444 1444 1445 1446 1447 1447 1447 1448 1448 1448 1448 1448 1447 1446 1446 1445 1444 1444 1443 1442
1425 1425 1425 1426 1427 1427 1428 1429 1430 1430 1431 1431 1432 1432 1432 1432 1433 1433 1434 1435 1436 1437 1438 1439 1440 1441 1441 1442 1442 1443 1443 1443 1443 1443 1442 1442 1441 1441 1440 1439 1439 1438 1437
1424 1424 1424 1424 1425 1426 1426 1427 1427 1428 1428 1428 1428 1429 1429 1429 1429 1429 1430 1430 1431 1432 1433 1434 1435 1436 1437 1437 1437 1438 1438 1438 1438 1438 1437 1436 1436 1435 1435 1434 1433 1433 1432
1423 1423 1423 1423 1423 1423 1424 1424 1424 1424 1425 1425 1425 1425 1425 1425 1425 1426 1426 1426 1427 1428 1429 1430 1430 1431 1432 1432 1432 1432 1432 1432 1432 1432 1432 1431 1430 1430 1429 1429 1428 1427 1426
1423 1422 1421 1421 1421 1421 1421 1421 1421 1421 1421 1421 1421 1421 1421 1422 1422 1422 1423 1423 1424 1424 1425 1425 1426 1426 1426 1427 1427 1427 1427 1427 1427 1427 1426 1426 1425 1424 1424 1423 1423 1422 1421
1421 1420 1420 1419 1419 1418 1418 1418 1418 1417 1418 1418 1418 1418 1418 1418 1418 1419 1419 1419 1419 1420 1420 1421 1421 1421 1421 1421 1421 1421 1421 1421 1421 1421 1420 1420 1419 1419 1418 1418 1417 1416 1415
1419 1418 1417 1417 1416 1416 1415 1415 1414 1414 1414 1414 1414 1414 1414 1414 1415 1415 1415 1415 1415 1415 1415 1416 1416 1416 1416 1416 1416 1416 1415 1415 1415 1415 1414 1414 1413 1413 1412 1412 1411 1410 1410